Time,TemperatureF,DewpointF,PressureIn,WindDirection,WindDirectionDegrees,WindSpeedMPH,WindSpeedGustMPH,Humidity,HourlyPrecipIn,Conditions,Clouds,dailyrainin,SoftwareType,DateUTC
2013-03-04 10:24:00,67.8,36.9,28.18,NW,315,10.0,15.0,32,0.00,,,0.00,meteohub,2013-03-04 16:24:00,
2013-03-04 10:25:00,67.8,38.5,28.18,West,270,8.0,15.0,34,0.00,,,0.00,meteohub,2013-03-04 16:25:00,
2013-03-04 10:30:00,68.0,37.0,28.18,NW,315,11.0,15.0,32,0.00,,,0.00,meteohub,2013-03-04 16:30:00,
2013-03-04 10:35:00,68.7,36.9,28.18,West,270,11.0,15.0,31,0.00,,,0.00,meteohub,2013-03-04 16:35:00,
2013-03-04 10:40:00,68.9,37.8,28.18,NW,315,9.0,12.0,32,0.00,,,0.00,meteohub,2013-03-04 16:40:00,
2013-03-04 10:45:00,69.1,39.6,28.18,North,0,5.0,12.0,34,0.00,,,0.00,meteohub,2013-03-04 16:45:00,
2013-03-04 10:50:00,69.6,36.9,28.19,NW,315,10.0,12.0,30,0.00,,,0.00,meteohub,2013-03-04 16:50:00,
2013-03-04 10:55:00,70.0,37.0,28.18,SW,225,8.0,12.0,30,0.00,,,0.00,meteohub,2013-03-04 16:55:00,
2013-03-04 11:00:00,69.8,37.0,28.18,North,0,8.0,12.0,30,0.00,,,0.00,meteohub,2013-03-04 17:00:00,
2013-03-04 11:05:00,70.3,37.4,28.18,WNW,293,6.0,12.0,30,0.00,,,0.00,meteohub,2013-03-04 17:05:00,
2013-03-04 11:10:00,70.5,37.6,28.18,North,0,8.0,10.0,30,0.00,,,0.00,meteohub,2013-03-04 17:10:00,
2013-03-04 11:15:00,70.7,39.4,28.18,NW,315,5.0,10.0,32,0.00,,,0.00,meteohub,2013-03-04 17:15:00,
2013-03-04 11:20:00,70.7,38.7,28.17,NW,315,6.0,10.0,31,0.00,,,0.00,meteohub,2013-03-04 17:20:00,
2013-03-04 11:25:00,70.9,37.9,28.17,NW,315,8.0,9.0,30,0.00,,,0.00,meteohub,2013-03-04 17:25:00,
2013-03-04 11:30:00,71.4,39.2,28.18,North,0,8.0,11.0,31,0.00,,,0.00,meteohub,2013-03-04 17:30:00,
2013-03-04 11:35:00,71.2,37.4,28.18,NW,315,7.0,11.0,29,0.00,,,0.00,meteohub,2013-03-04 17:35:00,
2013-03-04 11:40:00,71.1,38.1,28.18,North,0,8.0,11.0,30,0.00,,,0.00,meteohub,2013-03-04 17:40:00,
2013-03-04 11:45:00,71.6,38.5,28.18,West,270,8.0,11.0,30,0.00,,,0.00,meteohub,2013-03-04 17:45:00,
2013-03-04 11:50:00,72.1,38.1,28.17,NW,315,7.0,11.0,29,0.00,,,0.00,meteohub,2013-03-04 17:50:00,
2013-03-04 11:55:00,72.0,37.9,28.17,NW,315,11.0,11.0,29,0.00,,,0.00,meteohub,2013-03-04 17:55:00,
2013-03-04 12:00:00,72.0,37.9,28.17,North,0,8.0,11.0,29,0.00,,,0.00,meteohub,2013-03-04 18:00:00,
2013-03-04 12:05:00,72.1,39.0,28.17,NW,315,7.0,11.0,30,0.00,,,0.00,meteohub,2013-03-04 18:05:00,
2013-03-04 12:10:00,72.5,38.5,28.17,NW,315,8.0,11.0,29,0.00,,,0.00,meteohub,2013-03-04 18:10:00,
2013-03-04 12:15:00,72.9,39.6,28.17,NW,315,11.0,11.0,30,0.00,,,0.00,meteohub,2013-03-04 18:15:00,
2013-03-04 12:20:00,72.7,36.9,28.17,North,0,8.0,11.0,27,0.00,,,0.00,meteohub,2013-03-04 18:20:00,
2013-03-04 12:25:00,73.2,39.0,28.17,NNW,338,7.0,11.0,29,0.00,,,0.00,meteohub,2013-03-04 18:25:00,
2013-03-04 12:29:00,73.6,36.5,28.17,NW,315,9.0,11.0,26,0.00,,,0.00,meteohub,2013-03-04 18:29:00,
2013-03-04 12:30:00,73.6,36.5,28.17,NW,315,9.0,11.0,26,0.00,,,0.00,meteohub,2013-03-04 18:30:00,
2013-03-04 12:35:00,73.8,35.8,28.16,North,0,9.0,11.0,25,0.00,,,0.00,meteohub,2013-03-04 18:35:00,
2013-03-04 12:40:00,73.8,36.7,28.16,NW,315,7.0,10.0,26,0.00,,,0.00,meteohub,2013-03-04 18:40:00,
2013-03-04 12:45:00,73.6,37.6,28.15,NNW,338,4.0,10.0,27,0.00,,,0.00,meteohub,2013-03-04 18:45:00,
2013-03-04 12:50:00,74.7,35.4,28.15,NW,315,8.0,10.0,24,0.00,,,0.00,meteohub,2013-03-04 18:50:00,
2013-03-04 12:55:00,74.5,38.3,28.15,North,0,9.0,11.0,27,0.00,,,0.00,meteohub,2013-03-04 18:55:00,
2013-03-04 13:00:00,74.5,37.4,28.15,NW,315,8.0,15.0,26,0.00,,,0.00,meteohub,2013-03-04 19:00:00,
2013-03-04 13:05:00,74.7,38.5,28.15,NE,45,4.0,15.0,27,0.00,,,0.00,meteohub,2013-03-04 19:05:00,
2013-03-04 13:10:00,74.5,35.2,28.15,NW,315,8.0,15.0,24,0.00,,,0.00,meteohub,2013-03-04 19:10:00,
2013-03-04 13:15:00,74.7,35.4,28.15,NW,315,8.0,11.0,24,0.00,,,0.00,meteohub,2013-03-04 19:15:00,
2013-03-04 13:20:00,74.5,34.3,28.15,NW,315,10.0,11.0,23,0.00,,,0.00,meteohub,2013-03-04 19:20:00,
2013-03-04 13:25:00,74.7,37.6,28.15,North,0,11.0,11.0,26,0.00,,,0.00,meteohub,2013-03-04 19:25:00,
2013-03-04 13:30:00,73.9,37.8,28.15,North,0,8.0,13.0,27,0.00,,,0.00,meteohub,2013-03-04 19:30:00,
2013-03-04 13:35:00,73.6,37.6,28.15,NW,315,12.0,13.0,27,0.00,,,0.00,meteohub,2013-03-04 19:35:00,
2013-03-04 13:40:00,73.2,37.2,28.14,North,0,13.0,14.0,27,0.00,,,0.00,meteohub,2013-03-04 19:40:00,
2013-03-04 13:45:00,73.4,37.4,28.14,North,0,12.0,17.0,27,0.00,,,0.00,meteohub,2013-03-04 19:45:00,
2013-03-04 13:50:00,73.8,36.7,28.14,NW,315,8.0,17.0,26,0.00,,,0.00,meteohub,2013-03-04 19:50:00,
2013-03-04 13:55:00,73.8,37.8,28.14,NE,45,11.0,14.0,27,0.00,,,0.00,meteohub,2013-03-04 19:55:00,
2013-03-04 14:00:00,73.4,36.5,28.13,North,0,8.0,15.0,26,0.00,,,0.00,meteohub,2013-03-04 20:00:00,
2013-03-04 14:05:00,73.8,36.7,28.13,NE,45,11.0,15.0,26,0.00,,,0.00,meteohub,2013-03-04 20:05:00,
2013-03-04 14:10:00,73.8,39.6,28.13,North,0,15.0,15.0,29,0.00,,,0.00,meteohub,2013-03-04 20:10:00,
2013-03-04 14:15:00,73.8,38.7,28.12,North,0,12.0,15.0,28,0.00,,,0.00,meteohub,2013-03-04 20:15:00,
2013-03-04 14:20:00,73.4,38.3,28.12,NE,45,18.0,18.0,28,0.00,,,0.00,meteohub,2013-03-04 20:20:00,
2013-03-04 14:25:00,72.1,38.1,28.12,NNW,338,15.0,20.0,29,0.00,,,0.00,meteohub,2013-03-04 20:25:00,
2013-03-04 14:30:00,72.5,39.4,28.12,North,0,8.0,20.0,30,0.00,,,0.00,meteohub,2013-03-04 20:30:00,
2013-03-04 14:35:00,72.7,37.8,28.12,NE,45,14.0,20.0,28,0.00,,,0.00,meteohub,2013-03-04 20:35:00,
2013-03-04 14:40:00,72.5,38.5,28.12,NW,315,15.0,17.0,29,0.00,,,0.00,meteohub,2013-03-04 20:40:00,
2013-03-04 14:45:00,72.0,37.0,28.12,North,0,10.0,17.0,28,0.00,,,0.00,meteohub,2013-03-04 20:45:00,
2013-03-04 14:50:00,72.1,38.1,28.12,East,90,7.0,16.0,29,0.00,,,0.00,meteohub,2013-03-04 20:50:00,
2013-03-04 14:55:00,71.8,37.8,28.13,North,0,13.0,19.0,29,0.00,,,0.00,meteohub,2013-03-04 20:55:00,
2013-03-04 15:00:00,71.8,36.9,28.13,North,0,16.0,19.0,28,0.00,,,0.00,meteohub,2013-03-04 21:00:00,
2013-03-04 15:05:00,71.6,37.6,28.12,NE,45,17.0,19.0,29,0.00,,,0.00,meteohub,2013-03-04 21:05:00,
2013-03-04 15:10:00,71.4,38.3,28.12,NE,45,13.0,19.0,30,0.00,,,0.00,meteohub,2013-03-04 21:10:00,
2013-03-04 15:16:00,70.9,37.9,28.13,North,0,13.0,19.0,30,0.00,,,0.00,meteohub,2013-03-04 21:16:00,
2013-03-04 15:21:00,71.2,38.3,28.13,NE,45,14.0,19.0,30,0.00,,,0.00,meteohub,2013-03-04 21:21:00,
2013-03-04 15:26:00,71.4,40.1,28.14,NE,45,11.0,17.0,32,0.00,,,0.00,meteohub,2013-03-04 21:26:00,
2013-03-04 15:31:00,71.2,39.0,28.14,North,0,11.0,17.0,31,0.00,,,0.00,meteohub,2013-03-04 21:31:00,
2013-03-04 15:36:00,71.1,38.8,28.14,NW,315,11.0,17.0,31,0.00,,,0.00,meteohub,2013-03-04 21:36:00,
2013-03-04 15:41:00,70.9,39.6,28.13,North,0,14.0,19.0,32,0.00,,,0.00,meteohub,2013-03-04 21:41:00,
2013-03-04 15:46:00,70.9,38.7,28.14,NE,45,14.0,19.0,31,0.00,,,0.00,meteohub,2013-03-04 21:46:00,
2013-03-04 15:51:00,71.1,38.1,28.15,North,0,11.0,19.0,30,0.00,,,0.00,meteohub,2013-03-04 21:51:00,
2013-03-04 15:56:00,70.7,39.4,28.14,NE,45,11.0,15.0,32,0.00,,,0.00,meteohub,2013-03-04 21:56:00,
2013-03-04 16:01:00,70.5,38.5,28.14,NE,45,16.0,17.0,31,0.00,,,0.00,meteohub,2013-03-04 22:01:00,
2013-03-04 16:06:00,70.5,38.5,28.14,NE,45,12.0,18.0,31,0.00,,,0.00,meteohub,2013-03-04 22:06:00,
2013-03-04 16:11:00,70.3,39.0,28.14,NE,45,13.0,18.0,32,0.00,,,0.00,meteohub,2013-03-04 22:11:00,
2013-03-04 16:16:00,70.5,39.2,28.15,North,0,15.0,18.0,32,0.00,,,0.00,meteohub,2013-03-04 22:16:00,
2013-03-04 16:21:00,70.3,38.3,28.15,NE,45,16.0,16.0,31,0.00,,,0.00,meteohub,2013-03-04 22:21:00,
2013-03-04 16:26:00,70.5,39.2,28.14,North,0,13.0,16.0,32,0.00,,,0.00,meteohub,2013-03-04 22:26:00,
2013-03-04 16:31:00,70.3,39.0,28.15,NE,45,11.0,19.0,32,0.00,,,0.00,meteohub,2013-03-04 22:31:00,
2013-03-04 16:36:00,70.0,37.9,28.15,North,0,11.0,19.0,31,0.00,,,0.00,meteohub,2013-03-04 22:36:00,
2013-03-04 16:41:00,70.3,37.4,28.15,NE,45,14.0,19.0,30,0.00,,,0.00,meteohub,2013-03-04 22:41:00,
2013-03-04 16:46:00,69.8,39.4,28.15,East,90,11.0,17.0,33,0.00,,,0.00,meteohub,2013-03-04 22:46:00,
2013-03-04 16:51:00,69.6,39.2,28.15,NE,45,8.0,17.0,33,0.00,,,0.00,meteohub,2013-03-04 22:51:00,
2013-03-04 16:56:00,70.0,40.3,28.16,NW,315,8.0,17.0,34,0.00,,,0.00,meteohub,2013-03-04 22:56:00,
2013-03-04 17:01:00,70.2,40.5,28.16,North,0,13.0,17.0,34,0.00,,,0.00,meteohub,2013-03-04 23:01:00,
2013-03-04 17:06:00,69.3,38.8,28.15,East,90,17.0,17.0,33,0.00,,,0.00,meteohub,2013-03-04 23:06:00,
2013-03-04 17:11:00,69.1,40.3,28.16,NE,45,15.0,17.0,35,0.00,,,0.00,meteohub,2013-03-04 23:11:00,
2013-03-04 17:16:00,68.5,39.7,28.16,North,0,16.0,18.0,35,0.00,,,0.00,meteohub,2013-03-04 23:16:00,
2013-03-04 17:21:00,68.2,41.0,28.16,NE,45,15.0,18.0,37,0.00,,,0.00,meteohub,2013-03-04 23:21:00,
2013-03-04 17:26:00,68.0,41.4,28.16,North,0,10.0,18.0,38,0.00,,,0.00,meteohub,2013-03-04 23:26:00,
2013-03-04 17:31:00,67.5,41.7,28.17,NW,315,9.0,18.0,39,0.00,,,0.00,meteohub,2013-03-04 23:31:00,
2013-03-04 17:37:00,67.1,41.4,28.16,East,90,11.0,15.0,39,0.00,,,0.00,meteohub,2013-03-04 23:37:00,
2013-03-04 17:42:00,66.4,41.4,28.17,NE,45,18.0,18.0,40,0.00,,,0.00,meteohub,2013-03-04 23:42:00,
2013-03-04 17:47:00,66.0,41.7,28.17,NE,45,11.0,18.0,41,0.00,,,0.00,meteohub,2013-03-04 23:47:00,
2013-03-04 17:52:00,65.5,41.2,28.17,NE,45,12.0,18.0,41,0.00,,,0.00,meteohub,2013-03-04 23:52:00,
2013-03-04 17:57:00,64.9,41.4,28.17,NE,45,20.0,20.0,42,0.00,,,0.00,meteohub,2013-03-04 23:57:00,
2013-03-04 18:02:00,64.4,41.4,28.17,NE,45,10.0,20.0,43,0.00,,,0.00,meteohub,2013-03-05 00:02:00,
2013-03-04 18:07:00,64.0,41.2,28.17,NE,45,15.0,20.0,43,0.00,,,0.00,meteohub,2013-03-05 00:07:00,
2013-03-04 18:12:00,63.5,41.7,28.18,East,90,15.0,20.0,45,0.00,,,0.00,meteohub,2013-03-05 00:12:00,
2013-03-04 18:17:00,63.0,41.9,28.18,NE,45,10.0,19.0,46,0.00,,,0.00,meteohub,2013-03-05 00:17:00,
2013-03-04 18:22:00,62.2,41.7,28.19,NE,45,7.0,21.0,47,0.00,,,0.00,meteohub,2013-03-05 00:22:00,
2013-03-04 18:27:00,61.9,41.4,28.19,North,0,11.0,21.0,47,0.00,,,0.00,meteohub,2013-03-05 00:27:00,
2013-03-04 18:32:00,61.3,42.1,28.19,East,90,15.0,17.0,49,0.00,,,0.00,meteohub,2013-03-05 00:32:00,
2013-03-04 18:37:00,61.0,41.7,28.19,North,0,15.0,22.0,49,0.00,,,0.00,meteohub,2013-03-05 00:37:00,
2013-03-04 18:42:00,60.4,41.2,28.20,North,0,14.0,22.0,49,0.00,,,0.00,meteohub,2013-03-05 00:42:00,
2013-03-04 18:47:00,60.1,41.4,28.20,NE,45,15.0,19.0,50,0.00,,,0.00,meteohub,2013-03-05 00:47:00,
2013-03-04 18:52:00,59.7,41.5,28.20,NE,45,17.0,17.0,51,0.00,,,0.00,meteohub,2013-03-05 00:52:00,
2013-03-04 18:57:00,59.4,41.7,28.21,NE,45,12.0,17.0,52,0.00,,,0.00,meteohub,2013-03-05 00:57:00,
2013-03-04 19:02:00,59.2,42.6,28.21,NE,45,15.0,17.0,54,0.00,,,0.00,meteohub,2013-03-05 01:02:00,
2013-03-04 19:07:00,58.6,42.4,28.22,North,0,8.0,17.0,55,0.00,,,0.00,meteohub,2013-03-05 01:07:00,
2013-03-04 19:12:00,58.5,42.8,28.22,WNW,293,15.0,17.0,56,0.00,,,0.00,meteohub,2013-03-05 01:12:00,
2013-03-04 19:17:00,58.1,43.0,28.23,North,0,18.0,18.0,57,0.00,,,0.00,meteohub,2013-03-05 01:17:00,
2013-03-04 19:22:00,57.7,42.6,28.24,North,0,15.0,18.0,57,0.00,,,0.00,meteohub,2013-03-05 01:22:00,
2013-03-04 19:27:00,57.7,42.6,28.24,North,0,16.0,21.0,57,0.00,,,0.00,meteohub,2013-03-05 01:27:00,
2013-03-04 19:32:00,57.0,42.4,28.25,North,0,17.0,23.0,58,0.00,,,0.00,meteohub,2013-03-05 01:32:00,
2013-03-04 19:37:00,57.0,42.4,28.26,North,0,25.0,25.0,58,0.00,,,0.00,meteohub,2013-03-05 01:37:00,
2013-03-04 19:42:00,56.5,42.3,28.26,NW,315,21.0,25.0,59,0.00,,,0.00,meteohub,2013-03-05 01:42:00,
2013-03-04 19:48:00,55.6,41.5,28.29,North,0,25.0,25.0,59,0.00,,,0.00,meteohub,2013-03-05 01:48:00,
2013-03-04 19:53:00,55.0,41.4,28.30,North,0,22.0,26.0,60,0.00,,,0.00,meteohub,2013-03-05 01:53:00,
2013-03-04 19:58:00,54.5,41.4,28.31,NW,315,21.0,26.0,61,0.00,,,0.00,meteohub,2013-03-05 01:58:00,
2013-03-04 20:03:00,53.6,40.8,28.32,WNW,293,21.0,26.0,62,0.00,,,0.00,meteohub,2013-03-05 02:03:00,
2013-03-04 20:08:00,52.5,39.9,28.33,North,0,21.0,22.0,62,0.00,,,0.00,meteohub,2013-03-05 02:08:00,
2013-03-04 20:13:00,51.8,40.1,28.33,NE,45,28.0,28.0,64,0.00,,,0.00,meteohub,2013-03-05 02:13:00,
2013-03-04 20:18:00,51.3,39.9,28.33,North,0,25.0,28.0,65,0.01,,,0.01,meteohub,2013-03-05 02:18:00,
2013-03-04 20:23:00,50.7,39.7,28.35,NW,315,17.0,30.0,66,0.01,,,0.01,meteohub,2013-03-05 02:23:00,
2013-03-04 20:28:00,50.2,40.1,28.36,NW,315,17.0,30.0,68,0.02,,,0.02,meteohub,2013-03-05 02:28:00,
2013-03-04 20:33:00,50.0,39.9,28.37,North,0,19.0,33.0,68,0.02,,,0.02,meteohub,2013-03-05 02:33:00,
2013-03-04 20:38:00,49.1,39.0,28.38,North,0,24.0,33.0,68,0.02,,,0.02,meteohub,2013-03-05 02:38:00,
2013-03-04 20:43:00,48.6,38.8,28.40,North,0,18.0,33.0,69,0.02,,,0.02,meteohub,2013-03-05 02:43:00,
2013-03-04 20:48:00,48.6,38.8,28.40,NE,45,21.0,30.0,69,0.02,,,0.02,meteohub,2013-03-05 02:48:00,
2013-03-04 20:53:00,47.8,38.5,28.39,NE,45,17.0,30.0,70,0.02,,,0.02,meteohub,2013-03-05 02:53:00,
2013-03-04 20:58:00,47.7,38.3,28.40,NE,45,23.0,30.0,70,0.02,,,0.02,meteohub,2013-03-05 02:58:00,
2013-03-04 21:03:00,47.1,37.8,28.40,NE,45,18.0,26.0,70,0.02,,,0.02,meteohub,2013-03-05 03:03:00,
2013-03-04 21:08:00,46.9,37.6,28.40,North,0,19.0,25.0,70,0.02,,,0.02,meteohub,2013-03-05 03:08:00,
2013-03-04 21:13:00,47.1,37.8,28.41,West,270,21.0,27.0,70,0.02,,,0.02,meteohub,2013-03-05 03:13:00,
2013-03-04 21:18:00,46.8,37.6,28.43,North,0,24.0,34.0,70,0.01,,,0.02,meteohub,2013-03-05 03:18:00,
2013-03-04 21:23:00,46.6,37.4,28.43,North,0,23.0,34.0,70,0.01,,,0.02,meteohub,2013-03-05 03:23:00,
2013-03-04 21:28:00,46.6,37.4,28.43,WNW,293,23.0,34.0,70,0.00,,,0.02,meteohub,2013-03-05 03:28:00,
2013-03-04 21:33:00,46.4,37.2,28.43,North,0,22.0,32.0,70,0.00,,,0.02,meteohub,2013-03-05 03:33:00,
2013-03-04 21:38:00,46.2,36.7,28.43,WNW,293,27.0,32.0,69,0.00,,,0.02,meteohub,2013-03-05 03:38:00,
2013-03-04 21:43:00,46.2,36.7,28.45,North,0,21.0,27.0,69,0.00,,,0.02,meteohub,2013-03-05 03:43:00,
2013-03-04 21:48:00,46.2,36.3,28.45,North,0,15.0,28.0,68,0.00,,,0.02,meteohub,2013-03-05 03:48:00,
2013-03-04 21:53:00,46.4,36.0,28.46,North,0,23.0,35.0,67,0.00,,,0.02,meteohub,2013-03-05 03:53:00,
2013-03-04 21:58:00,46.4,35.6,28.46,North,0,23.0,35.0,66,0.02,,,0.05,meteohub,2013-03-05 03:58:00,
2013-03-04 22:03:00,46.2,35.1,28.47,North,0,23.0,35.0,65,0.02,,,0.05,meteohub,2013-03-05 04:03:00,
2013-03-04 22:08:00,46.2,34.7,28.48,NW,315,32.0,32.0,64,0.02,,,0.05,meteohub,2013-03-05 04:08:00,
2013-03-04 22:13:00,46.0,34.2,28.48,North,0,21.0,32.0,63,0.02,,,0.05,meteohub,2013-03-05 04:13:00,
2013-03-04 22:19:00,46.4,34.5,28.50,NE,45,20.0,32.0,63,0.02,,,0.05,meteohub,2013-03-05 04:19:00,
2013-03-04 22:24:00,46.2,34.0,28.51,North,0,26.0,32.0,62,0.02,,,0.05,meteohub,2013-03-05 04:24:00,
2013-03-04 22:29:00,46.4,34.2,28.52,NW,315,16.0,32.0,62,0.02,,,0.05,meteohub,2013-03-05 04:29:00,
2013-03-04 22:34:00,46.4,33.6,28.52,North,0,27.0,33.0,61,0.02,,,0.05,meteohub,2013-03-05 04:34:00,
2013-03-04 22:39:00,46.6,33.8,28.51,North,0,26.0,33.0,61,0.02,,,0.05,meteohub,2013-03-05 04:39:00,
2013-03-04 22:44:00,46.6,33.8,28.54,NW,315,26.0,33.0,61,0.02,,,0.05,meteohub,2013-03-05 04:44:00,
2013-03-04 22:49:00,46.4,33.3,28.53,North,0,27.0,28.0,60,0.07,,,0.09,meteohub,2013-03-05 04:49:00,
2013-03-04 22:54:00,46.2,32.7,28.54,NE,45,27.0,28.0,59,0.07,,,0.09,meteohub,2013-03-05 04:54:00,
2013-03-04 22:59:00,46.0,32.9,28.54,NE,45,18.0,28.0,60,0.05,,,0.09,meteohub,2013-03-05 04:59:00,
2013-03-04 23:00:00,46.2,33.1,28.54,North,0,17.0,28.0,60,0.05,,,0.09,meteohub,2013-03-05 05:00:00,
2013-03-04 23:02:00,45.9,32.7,28.55,North,0,29.0,30.0,60,0.05,,,0.09,meteohub,2013-03-05 05:02:00,
2013-03-04 23:07:00,45.5,32.4,28.55,NW,315,23.0,30.0,60,0.05,,,0.09,meteohub,2013-03-05 05:07:00,
2013-03-04 23:12:00,45.3,32.7,28.53,North,0,33.0,33.0,61,0.19,,,0.24,meteohub,2013-03-05 05:12:00,
2013-03-04 23:17:00,45.0,32.7,28.52,North,0,30.0,34.0,62,0.45,,,0.50,meteohub,2013-03-05 05:17:00,
2013-03-04 23:22:00,45.1,33.3,28.53,North,0,27.0,34.0,63,0.51,,,0.56,meteohub,2013-03-05 05:22:00,
2013-03-04 23:27:00,44.8,33.3,28.55,NW,315,32.0,37.0,64,0.51,,,0.56,meteohub,2013-03-05 05:27:00,
2013-03-04 23:32:00,44.6,33.6,28.57,WNW,293,25.0,37.0,65,0.53,,,0.58,meteohub,2013-03-05 05:32:00,
2013-03-04 23:37:00,44.6,34.0,28.57,WNW,293,22.0,34.0,66,0.53,,,0.58,meteohub,2013-03-05 05:37:00,
2013-03-04 23:42:00,44.6,34.0,28.58,NW,315,30.0,32.0,66,0.53,,,0.58,meteohub,2013-03-05 05:42:00,
2013-03-04 23:47:00,44.2,33.6,28.60,North,0,29.0,30.0,66,0.48,,,0.58,meteohub,2013-03-05 05:47:00,
2013-03-04 23:52:00,44.1,33.4,28.60,NE,45,22.0,30.0,66,0.48,,,0.58,meteohub,2013-03-05 05:52:00,
2013-03-04 23:58:00,44.1,33.1,28.61,North,0,24.0,30.0,65,0.48,,,0.58,meteohub,2013-03-05 05:58:00,